Preview of NWS' New Version of Forecast
This preview is not operational and should not be used for support decisions.

Regional Weather Roundup (RWR)

Issued by National Weather Service (NWS)

                            
000
ASUS45 KCYS 180210
RWRWY 

WYOMING REGIONAL WEATHER ROUNDUP
NATIONAL WEATHER SERVICE CHEYENNE WY
800 PM MDT SAT AUG 17 2019

NOTE:  "FAIR" INDICATES FEW OR NO CLOUDS BELOW 12,000 FEET
WITH NO SIGNIFICANT WEATHER AND/OR OBSTRUCTIONS TO VISIBILITY.

WYZ001-180300-
YELLOWSTONE NATIONAL PARK
  
CITY           SKY/WX    TMP DP  RH WIND       PRES   REMARKS
LK YELLOWSTONE   N/A     58  31  35 VRB3      30.07S                  
W YELLOWSTONE  NOT AVBL                                               

$$
WYZ002>013-054>058-071-098>099-180300-
NORTHERN WYOMING
  
CITY           SKY/WX    TMP DP  RH WIND       PRES   REMARKS
JACKSON        FAIR      63  28  26 SW8       30.00R                  
CODY           FAIR      53  48  83 N13G18    29.97R                  
GREYBULL       FAIR      65  46  50 NW23G32   29.84R                  
WORLAND        FAIR      66  46  48 N15G26    29.85R                  
SHERIDAN       CLOUDY    57  49  74 CALM      29.96S                  
BUFFALO        FOG       51  50  96 N5        29.98F VSB 3/4          
GILLETTE       CLOUDY    52  49  89 N12       29.95R                  
HULETT         CLOUDY    52  50  93 N9        29.96                   
NEWCASTLE      FAIR      63  50  63 NW12      29.85R                  

$$
WYZ014>020-022>026-101>103-180300-
CENTRAL WYOMING
  
CITY           SKY/WX    TMP DP  RH WIND       PRES   REMARKS
BIG PINEY      FAIR      67  23  19 NW9       30.05R                  
PINEDALE       FAIR      64  27  24 NW5       30.05                   
DUBOIS         FAIR      63  23  22 NW7       30.00                   
LANDER         FAIR      75  21  13 W14       29.89S                  
RIVERTON       FAIR      72  40  31 NE8       29.89R                  
CASPER         FAIR      62  47  57 MISG      29.95R                  
DOUGLAS        FAIR      65  50  58 N14       29.92R                  

$$
WYZ021-027>030-104>119-180300-
SOUTHERN WYOMING
  
CITY           SKY/WX    TMP DP  RH WIND       PRES   REMARKS
EVANSTON       FAIR      70  27  20 W14       30.08S                  
KEMMERER       FAIR      68  25  19 W9        30.08                   
ROCK SPRINGS   FAIR      71  25  17 W15       30.03R                  
DIXON          FAIR      71  31  22 W5G21     30.03S                  
RAWLINS        FAIR      73  23  15 W17G30    30.00R                  
SARATOGA       FAIR      70  32  24 SW22G28   30.04R                  
LARAMIE        FAIR      66  33  29 SW15      30.04R                  
CHEYENNE       FAIR      73  34  23 W15       29.95S                  
TORRINGTON     FAIR      72  60  66 NE23G32   29.76R                  
PINE BLUFFS    FAIR      68  46  45 W8        29.88S                  

$$